Weather History for KPPO - May, 2013

Change the Weather History Date:

Friday, May 24, 2013

  Actual Average (KVPZ) Record (KVPZ)
Temperature  
Mean Temperature 44 °F 62 °F  
Max Temperature 52 °F 73 °F 90 °F (2010)
Min Temperature 36 °F 51 °F 39 °F (2013)
Degree Days  
Heating Degree Days 21 5  
Month to date heating degree days 190  
Since 1 July heating degree days 6249  
Cooling Degree Days 0 2  
Month to date cooling degree days 26  
Year to date cooling degree days 31  
Moisture  
Dew Point 36 °F    
Average Humidity 70    
Maximum Humidity 96    
Minimum Humidity 46    
Precipitation  
Precipitation 0.00 in 0.13 in 0.52 in (2006)
Month to date precipitation 3.05  
Year to date precipitation 12.23  
Sea Level Pressure  
Sea Level Pressure 30.35 in    
Wind  
Wind Speed 9 mph (North)    
Max Wind Speed 15 mph    
Max Gust Speed 20 mph    
Visibility 10 miles    
Events      
T = Trace of Precipitation, MM = Missing Value Source: NWS Daily Summary

Daily Weather History Graph

Daily Weather History Graph

Search for Another Location

Airport or City:

Trip Planner

Search our weather history database for the weather conditions in past years. The results will help you decide how hot, cold, wet, or windy it might be!

Date:

Astronomy

May. 24, 2013 Rise Set
Actual Time 5:19 AM CDT 8:08 PM CDT
Civil Twilight 4:47 AM CDT 8:40 PM CDT
Nautical Twilight 4:06 AM CDT 9:22 PM CDT
Astronomical Twilight 3:19 AM CDT 10:09 PM CDT
Moon 7:49 PM CDT (5/24) 4:52 AM CDT (5/24)
Length of Visible Light 15h 53m
Length of Day
14h 48m
Full, 100% of the Moon is Illuminated
May 24
Full
May 24
Full
May 31
Last Quarter
Jun 8
New
Jun 16
First Quarter

Hourly Weather History & Observations

Time (CDT) Temp. Windchill Dew Point Humidity Pressure Visibility Wind Dir Wind Speed Gust Speed Precip Events Conditions
12:15 AM 41.0 °F 34.7 °F 38.5 °F 91% 30.24 in 10.0 mi North 10.4 mph - N/A   Clear
12:35 AM 40.6 °F 35.4 °F 38.3 °F 91% 30.25 in 10.0 mi North 8.1 mph - N/A   Clear
12:55 AM 41.4 °F 36.2 °F 39.4 °F 93% 30.25 in 10.0 mi North 8.1 mph - N/A   Mostly Cloudy
1:15 AM 41.5 °F 35.9 °F 39.2 °F 91% 30.25 in 10.0 mi North 9.2 mph - N/A   Mostly Cloudy
1:35 AM 41.2 °F 35.5 °F 39.2 °F 93% 30.25 in 10.0 mi North 9.2 mph - N/A   Scattered Clouds
1:55 AM 41.2 °F 35.0 °F 39.2 °F 93% 30.26 in 10.0 mi North 10.4 mph - N/A   Clear
2:15 AM 42.1 °F 36.1 °F 39.2 °F 90% 30.26 in 10.0 mi North 10.4 mph 17.3 mph N/A   Mostly Cloudy
2:35 AM 42.4 °F 36.1 °F 39.2 °F 88% 30.27 in 10.0 mi NNE 11.5 mph 16.1 mph N/A   Overcast
2:55 AM 42.1 °F 36.1 °F 38.3 °F 86% 30.26 in 10.0 mi NNE 10.4 mph - N/A   Overcast
3:15 AM 41.5 °F 34.2 °F 37.2 °F 85% 30.27 in 10.0 mi NNE 13.8 mph - N/A   Mostly Cloudy
3:35 AM 40.5 °F 34.6 °F 36.5 °F 86% 30.28 in 10.0 mi NNE 9.2 mph - N/A   Clear
3:55 AM 40.1 °F 36.1 °F 36.7 °F 88% 30.28 in 10.0 mi NNE 5.8 mph - N/A   Clear
4:15 AM 39.6 °F 35.4 °F 36.5 °F 89% 30.29 in 10.0 mi North 5.8 mph - N/A   Clear
4:35 AM 38.3 °F 35.9 °F 36.1 °F 92% 30.30 in 10.0 mi North 3.5 mph - N/A   Clear
4:55 AM 38.1 °F - 36.5 °F 94% 30.30 in 10.0 mi Calm Calm - N/A   Clear
5:15 AM 36.5 °F 33.9 °F 35.1 °F 95% 30.31 in 10.0 mi North 3.5 mph - N/A   Clear
5:35 AM 37.4 °F 33.8 °F 36.3 °F 96% 30.31 in 10.0 mi North 4.6 mph - N/A   Clear
5:55 AM 39.2 °F 34.2 °F 37.4 °F 93% 30.32 in 10.0 mi North 6.9 mph - N/A   Clear
6:15 AM 40.6 °F 36.0 °F 37.6 °F 89% 30.34 in 10.0 mi North 6.9 mph - N/A   Clear
6:35 AM 41.9 °F 35.9 °F 37.0 °F 83% 30.35 in 10.0 mi NNE 10.4 mph - N/A   Scattered Clouds
6:55 AM 42.1 °F 36.6 °F 34.5 °F 75% 30.35 in 10.0 mi NNE 9.2 mph - N/A   Scattered Clouds
7:15 AM 43.2 °F 38.4 °F 34.7 °F 72% 30.36 in 10.0 mi North 8.1 mph - N/A   Clear
7:35 AM 44.1 °F 38.6 °F 35.2 °F 71% 30.37 in 10.0 mi NNE 10.4 mph - N/A   Clear
7:55 AM 44.6 °F 39.2 °F 36.3 °F 73% 30.37 in 10.0 mi NNE 10.4 mph - N/A   Clear
8:15 AM 45.3 °F 41.1 °F 37.2 °F 73% 30.38 in 10.0 mi NNE 8.1 mph - N/A   Clear
8:35 AM 45.9 °F 42.3 °F 37.4 °F 72% 30.38 in 10.0 mi NNE 6.9 mph - N/A   Scattered Clouds
8:55 AM 47.1 °F - 37.4 °F 69% 30.39 in 10.0 mi North 6.9 mph - N/A   Clear
9:15 AM 48.4 °F - 38.8 °F 70% 30.40 in 10.0 mi NNW 9.2 mph - N/A   Scattered Clouds
9:35 AM 48.9 °F - 38.8 °F 68% 30.40 in 10.0 mi North 9.2 mph - N/A   Scattered Clouds
9:55 AM 49.3 °F - 37.6 °F 64% 30.41 in 10.0 mi North 12.7 mph - N/A   Scattered Clouds
10:15 AM 50.0 °F - 36.9 °F 61% 30.40 in 10.0 mi North 9.2 mph 17.3 mph N/A   Scattered Clouds
10:35 AM 50.7 °F - 37.2 °F 60% 30.41 in 10.0 mi North 11.5 mph 17.3 mph N/A   Clear
10:55 AM 50.2 °F - 36.7 °F 60% 30.41 in 10.0 mi NNW 10.4 mph 18.4 mph N/A   Clear
11:15 AM 50.7 °F - 36.5 °F 58% 30.41 in 10.0 mi North 12.7 mph 19.6 mph N/A   Clear
11:35 AM 50.7 °F - 35.1 °F 55% 30.41 in 10.0 mi North 13.8 mph 18.4 mph N/A   Clear
11:55 AM 51.1 °F - 36.0 °F 56% 30.41 in 10.0 mi NNW 12.7 mph 16.1 mph N/A   Clear
12:15 PM 51.3 °F - 36.1 °F 56% 30.41 in 10.0 mi NNW 13.8 mph 19.6 mph N/A   Clear
12:35 PM 50.9 °F - 35.4 °F 55% 30.41 in 10.0 mi North 13.8 mph 18.4 mph N/A   Clear
12:55 PM 51.4 °F - 36.5 °F 57% 30.41 in 10.0 mi North 11.5 mph 16.1 mph N/A   Clear
1:15 PM 51.8 °F - 35.2 °F 53% 30.41 in 10.0 mi North 9.2 mph 18.4 mph N/A   Clear
1:35 PM 51.6 °F - 35.1 °F 53% 30.41 in 10.0 mi North 11.5 mph 17.3 mph N/A   Clear
1:55 PM 51.4 °F - 34.7 °F 53% 30.41 in 10.0 mi NNW 11.5 mph 18.4 mph N/A   Clear
2:15 PM 51.8 °F - 34.9 °F 53% 30.41 in 10.0 mi North 15.0 mph 18.4 mph N/A   Clear
2:35 PM 50.9 °F - 33.6 °F 52% 30.40 in 10.0 mi North 12.7 mph 18.4 mph N/A   Clear
2:55 PM 51.3 °F - 33.1 °F 50% 30.40 in 10.0 mi NNW 11.5 mph 18.4 mph N/A   Clear
3:15 PM 51.6 °F - 33.8 °F 51% 30.40 in 10.0 mi NNW 11.5 mph - N/A   Clear
3:35 PM 51.3 °F - 33.6 °F 51% 30.39 in 10.0 mi NNW 11.5 mph - N/A   Clear
3:55 PM 52.3 °F - 34.9 °F 51% 30.39 in 10.0 mi NNW 9.2 mph - N/A   Clear
4:15 PM 51.8 °F - 33.8 °F 50% 30.38 in 10.0 mi North 8.1 mph - N/A   Clear
4:35 PM 51.3 °F - 32.7 °F 49% 30.37 in 10.0 mi NNW 10.4 mph - N/A   Clear
4:55 PM 51.4 °F - 34.0 °F 51% 30.36 in 10.0 mi North 11.5 mph - N/A   Clear
5:15 PM 50.7 °F - 32.5 °F 50% 30.35 in 10.0 mi North 11.5 mph - N/A   Clear
5:35 PM 50.7 °F - 32.0 °F 49% 30.34 in 10.0 mi North 9.2 mph - N/A   Clear
5:55 PM 50.9 °F - 30.7 °F 46% 30.33 in 10.0 mi NNW 8.1 mph - N/A   Clear
6:15 PM 50.9 °F - 31.3 °F 47% 30.33 in 10.0 mi North 9.2 mph - N/A   Clear
6:35 PM 50.5 °F - 31.6 °F 48% 30.33 in 10.0 mi NNW 6.9 mph - N/A   Clear
6:55 PM 50.0 °F - 31.6 °F 49% 30.32 in 10.0 mi NNW 8.1 mph - N/A   Clear
7:15 PM 49.1 °F - 32.0 °F 52% 30.33 in 10.0 mi NW 4.6 mph - N/A   Clear
7:35 PM 48.0 °F - 31.5 °F 53% 30.33 in 10.0 mi NW 6.9 mph - N/A   Clear
7:55 PM 46.6 °F - 32.2 °F 57% 30.33 in 10.0 mi NNW 5.8 mph - N/A   Clear
8:15 PM 45.3 °F 44.0 °F 32.9 °F 62% 30.34 in 10.0 mi NW 3.5 mph - N/A   Clear
8:35 PM 43.2 °F 39.7 °F 35.2 °F 74% 30.34 in 10.0 mi NNW 5.8 mph - N/A   Clear
8:55 PM 43.0 °F 38.2 °F 35.8 °F 76% 30.35 in 10.0 mi NNW 8.1 mph - N/A   Clear
9:15 PM 41.5 °F 36.4 °F 35.6 °F 79% 30.36 in 10.0 mi NNW 8.1 mph - N/A   Clear
9:35 PM 40.6 °F 37.5 °F 35.2 °F 81% 30.36 in 10.0 mi North 4.6 mph - N/A   Clear
9:55 PM 40.1 °F 36.9 °F 34.9 °F 82% 30.38 in 10.0 mi NNW 4.6 mph - N/A   Clear
10:15 PM 40.3 °F 34.9 °F 34.9 °F 81% 30.37 in 10.0 mi NNW 8.1 mph - N/A   Clear
10:35 PM 40.1 °F 36.1 °F 34.9 °F 82% 30.38 in 10.0 mi NNW 5.8 mph - N/A   Clear
10:55 PM 39.4 °F 36.1 °F 35.1 °F 84% 30.38 in 10.0 mi NW 4.6 mph - N/A   Scattered Clouds
11:15 PM 38.8 °F - 34.9 °F 86% 30.37 in 10.0 mi Calm Calm - N/A   Scattered Clouds
11:35 PM 38.3 °F - 34.7 °F 87% 30.37 in 10.0 mi Calm Calm - N/A   Clear
11:55 PM 38.5 °F - 35.1 °F 87% 30.38 in 10.0 mi Calm Calm - N/A   Clear